FENGYUN 1C DEB, 32203

Orbit data source: Space-Track

FENGYUN 1C DEB, 32203 is space debris in SSO originally from a launch on Mon, 10 May 1999 UTC launched from the Taiyaun Space Center, China (TSC). Fengyun 1C debris stems from the Chinese weather satellite Fengyun-1C, which was intentionally destroyed by a Chinese anti-satellite missile in 2007. This event dramatically increased the amount of space debris, with thousands of trackable fragments posing hazards to satellites and human spaceflight. The Fengyun 1C debris cloud has become a focal point in discussions about space sustainability and the need for international regulations to prevent the creation of new debris.

Loading next visibility...
Identifier
32203, 1999-025CUZ
Orbit
SSO
Country
Flag of CNCN / PRC
Related business
Manufacturer
Unknown
Mission
Spacecraft
Bus & Motor
Unknown
Mass
Unknown
Launch date (UTC)
1999-05-10 (26 years ago)
Launch vehicle
Unknown
Launch site
Taiyaun Space Center, China (TSC)
Object type
Payload
Rocket body
Debris
Shape & HBR
Unknown shape, 0.1 m
Radar Cross Section
Small (<0.1 m²)

Expand to show TLE details & history
Last TLE update: 3 days ago

TLE from 3 days ago
0 FENGYUN 1C DEB
1 32203U 99025CUZ 25289.45239666  .00029927  00000-0  57998-3 0  9992
2 32203  97.0198 183.4007 0153654 300.2601  58.3510 15.35734509742170
Epoch: 2025-10-16T10:51Z
TLE epoch observation values (Epoch: 2025-10-16T10:51:27.071Z)
Latitude
-0.00003°
Longitude
-4.67401°
Altitude
407.913 km
Speed
7.696 km/s
True Right ascension
12h 13m 36s
True Declination
0° 00' 00"
Sunlit
Object was in daylight at epoch
Visualization orbit readout
Latitude
Unknown
Longitude
Unknown
Altitude
Unknown
Speed
Unknown
Apparent Right ascension
Unknown
Apparent Declination
Unknown
Sunlit
N/A
Visualization observer readout
Local Sidereal Time
21:17:32
Azimuth
Unknown
Elevation
Unknown
Doppler factor
Unknown
Orbital elements
Apogee altitude
560.671 km
Perigee altitude
350.663 km
Semi-major axis
6,833.804 km
Eccentricity
0.01537
Inclination
97.0198°
RAAN
183.4007°
Arg. of periapsis
300.2601°
True anomaly
59.86496°
Mean anomaly
58.351°
Eccentric anomaly
59.10647°
Mean motion
3.84193 °/min
Orbital period
93.7 mins
BSTAR
0.00057998
Loading maneuver chart data...
Computing Atmospheric mass density...

Documentation

Showing up to 5 results
|